Home   Weather   New Haven   Past weeks
Flag for USA

Past Weather in New Haven, Connecticut, USA — Yesterday and Last 2 Weeks

Now
57 °F

Overcast.


Feels Like: 57 °F
Forecast: 59 / 47 °F
Wind: 3 mph from Northeast

Location: Tweed-New Haven Airport

Current Time: Oct 22, 2019 at 12:27:11 pm

Latest Report: Oct 22, 2019 at 10:53 am


Visibility: 10 mi

Pressure: 30.09 "Hg

Humidity: 81%

Dew Point: 51 °F

Location of New HavenLocation

Past Weather in New Haven — Graph

°F

New Haven Temperature Yesterday

Maximum temperature yesterday: 67 °F (at 1:53 pm)
Minimum temperature yesterday: 50 °F (at 7:53 am)
Average temperature yesterday: 56 °F

High & Low Weather Summary for the Past Weeks

 TemperatureHumidityPressure
High77 °F (Oct 7, 12:53 pm)93% (Oct 16, 6:53 am)30.29 "Hg (Oct 16, 6:53 am)
Low37 °F (Oct 19, 4:53 am)35% (Oct 15, 11:53 am)29.00 "Hg (Oct 17, 12:53 am)
Average57 °F70%29.97 "Hg
* Reported Oct 7 10:53 am — Oct 22 10:53 am, New Haven. Weather by CustomWeather, © 2019

Note: Actual official high and low records may vary slightly from our data, if they occured in-between our weather recording intervals... More about our weather records

Advertising

New Haven Weather History for the Previous 24 Hours

Scroll right to see more
 ConditionsComfort  
Time TempWeatherWind HumidityBarometerVisibility
10:53 am
Tue, Oct 22
57 °FOvercast.3 mph81%30.09 "Hg10 mi
9:53 am56 °FOvercast.8 mph77%30.09 "Hg10 mi
8:53 am54 °FOvercast.3 mph80%30.11 "Hg10 mi
7:53 am52 °FPartly sunny.5 mph80%30.10 "Hg10 mi
6:53 am51 °FClear.6 mph80%30.09 "Hg10 mi
5:53 am51 °FClear.5 mph74%30.10 "Hg10 mi
4:53 am51 °FClear.8 mph74%30.09 "Hg10 mi
3:53 am49 °FClear.5 mph77%30.10 "Hg10 mi
2:53 am52 °FClear.6 mph69%30.10 "Hg10 mi
1:53 am50 °FClear.5 mph77%30.14 "Hg10 mi
12:53 am48 °FClear.3 mph86%30.14 "Hg10 mi
11:53 pm
Mon, Oct 21
50 °FClear.No wind77%30.15 "Hg10 mi
10:53 pm54 °FClear.5 mph72%30.12 "Hg10 mi
9:53 pm55 °FClear.7 mph77%30.13 "Hg10 mi
8:53 pm50 °FClear.No wind93%30.14 "Hg10 mi
7:53 pm52 °FClear.No wind86%30.11 "Hg10 mi
6:53 pm55 °FClear.No wind83%30.10 "Hg10 mi
5:53 pm61 °FSunny.No wind70%30.09 "Hg10 mi
4:53 pm65 °FSunny.7 mph61%30.08 "Hg10 mi
3:53 pm67 °FSunny.8 mph57%30.06 "Hg10 mi
1:53 pm67 °FSunny.8 mph51%30.05 "Hg10 mi
12:53 pm66 °FSunny.12 mph52%30.06 "Hg10 mi
Weather by CustomWeather, © 2019

See weather overview